This is the latest recevied weather packets stored in our database for station/object SP6YY-15. If no packets are shown the sender has not sent any weather packets the latest 10 day(s).
| Time | Temp. | Humidity | Pressure | Rain* | Wind** | Luminosity | Snow |
|---|---|---|---|---|---|---|---|
| 1787673255 | 31.11° C | 26% | 1004.7 hPa | - | - | - | - |
| 1787672955 | 31.11° C | 26% | 1004.8 hPa | - | - | - | - |
| 1787672655 | 31.11° C | 26% | 1004.9 hPa | - | - | - | - |
| 1787672355 | 31.67° C | 26% | 1004.9 hPa | - | - | - | - |
| 1787672055 | 31.67° C | 26% | 1004.9 hPa | - | - | - | - |
| 1787671755 | 32.22° C | 25% | 1004.8 hPa | - | - | - | - |
| 1787671455 | 32.78° C | 25% | 1004.7 hPa | - | - | - | - |
| 1787671155 | 33.89° C | 24% | 1004.6 hPa | - | - | - | - |
| 1787670855 | 35.56° C | 22% | 1004.9 hPa | - | - | - | - |
| 1787670252 | 37.22° C | 20% | 1005.3 hPa | - | - | - | - |
| 1787669952 | 36.11° C | 24% | 1005.6 hPa | - | - | - | - |
| 1787657511 | 40° C | 25% | 1005.2 hPa | - | - | - | - |
| 1787657210 | 40° C | 25% | 1005.2 hPa | - | - | - | - |
| 1787656910 | 40° C | 25% | 1005.2 hPa | - | - | - | - |
| 1787656610 | 40.56° C | 25% | 1005.2 hPa | - | - | - | - |
| 1787656310 | 40.56° C | 25% | 1005.3 hPa | - | - | - | - |
| 1787656009 | 40.56° C | 25% | 1005.3 hPa | - | - | - | - |
| 1787655709 | 40.56° C | 25% | 1005.3 hPa | - | - | - | - |
| 1787655409 | 40.56° C | 25% | 1005.3 hPa | - | - | - | - |
| 1787655109 | 40.56° C | 26% | 1005.2 hPa | - | - | - | - |
| 1787654809 | 40.56° C | 26% | 1005.3 hPa | - | - | - | - |
| 1787654509 | 40.56° C | 26% | 1005.4 hPa | - | - | - | - |
| 1787654209 | 40.56° C | 26% | 1005.4 hPa | - | - | - | - |
| 1787653909 | 40° C | 27% | 1005.3 hPa | - | - | - | - |
| 1787653609 | 40° C | 27% | 1005.2 hPa | - | - | - | - |
* Rain since midnight (hover to see other rain measurements)
** Current wind speed in m/s (hover to see current wind gust speed)